Location: Santa Barbara
(34.4500°N, 119.7700°W)
Time: 05:12:09
(UTC-07:00)

Cosmos 1626 Rocket - Visible Passes

Search period start: 21 August 2017 00:00
Search period end: 31 August 2017 00:00
Orbit: 602 x 632 km, 82.5° (Epoch: 20 August)

Date Brightness Start Highest point End Pass type
(mag) Time Alt. Az. Time Alt. Az. Time Alt. Az.
21 Aug 6.0 22:19:51 10° NNE 22:20:36 14° NNE 22:20:36 14° NNE visible
22 Aug 6.0 22:36:20 10° N 22:37:23 17° N 22:37:23 17° N visible
23 Aug 6.2 22:53:10 10° NNW 22:54:11 17° NNW 22:54:11 17° NNW visible
24 Aug 5.9 21:33:19 10° NNE 21:33:53 12° NE 21:33:53 12° NE visible
24 Aug 6.5 23:10:22 10° NNW 23:11:01 13° NW 23:11:01 13° NW visible
25 Aug 5.6 21:49:18 10° NNE 21:50:44 19° NNE 21:50:44 19° NNE visible
26 Aug 5.4 22:05:47 10° N 22:07:35 24° N 22:07:35 24° N visible
27 Aug 5.6 22:22:37 10° NNW 22:24:29 25° NNW 22:24:29 25° NNW visible
28 Aug 5.5 21:02:46 10° NNE 21:04:15 15° NE 21:04:15 15° NE visible
28 Aug 6.1 22:39:49 10° NNW 22:41:23 19° NW 22:41:23 19° NW visible
29 Aug 4.9 21:18:45 10° NNE 21:21:12 26° NE 21:21:12 26° NE visible
29 Aug 6.6 22:57:39 10° NW 22:58:19 12° WNW 22:58:19 12° WNW visible
30 Aug 4.4 21:35:14 10° N 21:38:10 41° NNE 21:38:10 41° NNE visible
